Regional Weather Roundup
Issued by NWS Newport/Morehead, NC

Current Version | Previous Version | Text Only | Print | Product List | Glossary Off
Versions: 1 2 3 4 5 6 7 8 9 10 11 12 13 14 15 16 17 18 19 20 21 22 23 24 25 26 27 28 29 30 31 32 33 34 35 36 37 38 39 40 41 42 43 44 45 46 47 48 49 50
000 ASUS42 KMHX 220822 RWRMHX WEATHER ROUNDUP FOR EASTERN NORTH CAROLINA NATIONAL WEATHER SERVICE NEWPORT/MOREHEAD CITY NC 300 AM EST MON DEC 22 2014 NOTE: "FAIR" INDICATES FEW OR NO CLOUDS BELOW 12,000 FEET WITH NO SIGNIFICANT WEATHER AND/OR OBSTRUCTIONS TO VISIBILITY NCZ015>017-031-032-045>047-102-103-220900- NORTH COAST CITY SKY/WX TMP DP RH WIND PRES REMARKS EDENTON DRIZZLE 42 39 88 N8 30.18F ELIZABETH CITY CLOUDY 48 39 71 NE15 30.21S KITTY HAWK LGT RAIN 47 45 91 NE9G16 30.18S MANTEO LGT RAIN 47 45 90 NE15G21 30.18F $$ NCZ045>047-081-094-103-104-220900- CENTRAL COAST CITY SKY/WX TMP DP RH WIND PRES REMARKS FRISCO LGT RAIN 51 51 100 NE12G18 30.13F FOG SWANQUARTER N/A 46 N/A N/A NE9G20 30.09F $$ NCZ095-097-098-100-101-220900- SOUTHERN COAST CITY SKY/WX TMP DP RH WIND PRES REMARKS BEAUFORT CLOUDY 48 48 100 NE9 30.10F CEDAR ISLAND N/A 48 N/A N/A NE23G33 30.15S JACKSONVILLE CLOUDY 45 43 93 NE10 30.09F PINEY ISLAND N/A N/A N/A N/A MISG 30.10F WILMINGTON CLOUDY 45 43 93 N8 30.08F $$ NCZ011>013-027>030-043-044-078>080-089-090>093-098-220900- COASTAL PLAIN CITY SKY/WX TMP DP RH WIND PRES REMARKS AHOSKIE CLOUDY 38 33 82 N8 30.21F CLINTON HVY RAIN 40 40 100 N6 30.15S ELIZABETHTOWN LGT RAIN 42 42 100 N5 30.10F GOLDSBORO LGT RAIN 39 39 100 N6 30.13F GREENVILLE RAIN 39 37 93 N8 30.18F HAVELOCK LGT RAIN 48 45 89 NE10 30.12S KENANSVILLE LGT RAIN 40 39 98 N7 30.13S KINSTON RAIN 40 39 95 N7 30.15F NEW BERN LGT RAIN 46 42 86 NE9 30.13F RICHLANDS CLOUDY 43 37 81 N9 30.10F ROCKY MOUNT LGT RAIN 38 35 89 N13 30.20S FOG WASHINGTON CLOUDY 41 39 91 NE8 30.15S WHITEVILLE CLOUDY 43 42 95 N6 30.09F FOG $$ AMZ130-135-150-152-154-156-158-170-250-252-270-ANZ085-086-088-633-658-670-220900- MARINE OBSERVATIONS STATION/POSITION TIME TEMP WIND PRES WAVE SWELL AIR SEA DIR/SP/G HT/PER HT/PER (UTC) (F) (DEG/KT/KT) (MB) (FT/S) (FT/S) CHESAPEAKE LIGHT 0800 44 40/ 22/ 23 1024.2 64 E VA BEACH 0800 51 54 40/ 17/ 21 1022.7 3/ 4 2/10 DUCK 0800 48 46 40/ 20/ 23 1021.4 2 E DUCK 0800 46 N/A 4/ 5 10 NE DUCK 0800 52 N/A 5/ 5 OREGON INLET 0800 49 48 20/ 14/ 17 1021.2 13E OREGON INLT 0800 52 N/A 4/ 5 HATTERAS CG 0800 50 49 30/ 11/ 15 1020.3 DIAMOND BUOY 0800 63 1019.1 5/ 7 17 S OCRACOKE NOT AVBL CAPE LOOKOUT 0800 50 30/ 21/ 24 1018.8 BEAUFORT LAB 0800 48 49 40/ 9/ 13 1018.0 30 SE NEW RIVER 0800 54 60 50/ 21/ 27 1017.9 7/ 6 2/ 9 5 SE WRIGHTSVLE NOT AVBL 225 S CAPE HAT 0734 72 72 120/ 6/ 8 1018.0 5/ 7 5/ 7 41 SE CHARLESTON 0800 65 73 20/ 17/ 21 1015.3 7/ 7 3/ 9 $$

USA.gov is the U.S. government's official web portal to all federal, state and local government web resources and services.